Retour au catalogue

STARLINK-6270

ActifCommunicationsVLEO
NORAD 56421·PAYLOAD·🇺🇸 United States

Lancé May 4, 2023 depuis Cape Canaveral Space Force Station

Loading…

Prochains Passages (prochaines 24 heures)

TLE

FraisSource: CelesTrak SupGP

Époque: Sep 14, 2026, 21:26 UTC

1 56421C 23061AZ  26257.89354167 -.00008157  00000+0 -29548-3 0  2575
2 56421  43.0033 194.6101 0001643 264.3247 111.5141 15.27578343    17

Suivez STARLINK-6270 en temps réel avec AllMySat

Download on the App Store